Everett, WA
on Thursday, January 24, 2013

Thursday
Previous Day Next Day
Daily Summary
 ActualAverageRecord
Temperature
Mean Temperature °F °F  
Max Temperature 44°F 45°F 57°F (1953)
Min Temperature 39°F 35°F 7°F (1949)
Degree Days
Heating Degree Days 24    
Moisture
Dew Point 37°F   
Average Humidity 83    
Maximum Humidity 93    
Minimum Humidity 66    
Precipitation
Precipitation 0.08 in in in ()
Wind
Wind Speed 7 mph   
Max Wind Speed 16 mph   
Max Gust Speed 21 mph   
Visibility 10 miles   
Events Rain   
Averages and records for this station are not official NWS values.
Key: T is trace of precipitation, MM is missing value
Source: NWS Daily Summary
Seasonal Weather Averages
Time(PST)TemperatureDew PointHumidity Pressure Visibility Wind DirectionWind SpeedGust SpeedPrecipitationEvents Conditions
12:53 AM 41.0°F 37.9°F 89% 30.16 in 10.0 miles South 3.5 mph - N/A   Overcast
1:01 AM 42.8°F 37.4°F 81% 30.15 in 10.0 miles South 3.5 mph - N/A   Overcast
1:53 AM 41.0°F 37.9°F 89% 30.18 in 10.0 miles South 5.8 mph - N/A   Overcast
2:17 AM 42.8°F 37.4°F 81% 30.17 in 10.0 miles SSE 8.1 mph - N/A   Overcast
2:53 AM 41.0°F 37.0°F 86% 30.19 in 10.0 miles SSE 5.8 mph - N/A   Overcast
3:29 AM 41.0°F 37.4°F 87% 30.18 in 10.0 miles SSE 5.8 mph - N/A   Overcast
3:53 AM 41.0°F 37.9°F 89% 30.19 in 10.0 miles SSE 8.1 mph - N/A   Overcast
4:53 AM 41.0°F 37.9°F 89% 30.19 in 10.0 miles SSE 9.2 mph - N/A   Overcast
5:34 AM 39.2°F 37.4°F 93% 30.19 in 10.0 miles SSE 5.8 mph - N/A   Overcast
5:53 AM 39.9°F 37.0°F 89% 30.21 in 9.0 miles SSE 5.8 mph - N/A   Overcast
6:53 AM 39.9°F 37.0°F 89% 30.20 in 10.0 miles Variable 3.5 mph - N/A   Overcast
7:03 AM 39.2°F 37.4°F 93% 30.18 in 10.0 miles Variable 3.5 mph - N/A   Overcast
7:53 AM 39.9°F 36.0°F 86% 30.20 in 10.0 miles SSE 6.9 mph - N/A   Overcast
8:53 AM 39.9°F 36.0°F 86% 30.19 in 10.0 miles SSE 9.2 mph - N/A   Overcast
9:53 AM 42.1°F 35.1°F 76% 30.19 in 10.0 miles SSE 9.2 mph - N/A   Partly Cloudy
10:53 AM 43.0°F 36.0°F 76% 30.17 in 10.0 miles SSE 9.2 mph - N/A   Clear
11:53 AM 43.0°F 35.1°F 74% 30.15 in 10.0 miles SSE 5.8 mph - N/A   Mostly Cloudy
12:53 PM 44.1°F 34.0°F 68% 30.12 in 10.0 miles Variable 4.6 mph - N/A   Overcast
1:53 PM 43.0°F 34.0°F 71% 30.10 in 10.0 miles SSE 6.9 mph - 0.01 in   Overcast
2:03 PM 44.6°F 33.8°F 66% 30.08 in 10.0 miles Variable 4.6 mph - N/A   Overcast
2:53 PM 43.0°F 34.0°F 71% 30.08 in 10.0 miles Variable 3.5 mph - N/A   Overcast
3:53 PM 43.0°F 34.0°F 71% 30.08 in 10.0 miles South 4.6 mph - N/A   Overcast
4:00 PM 42.8°F 33.8°F 70% 30.07 in 10.0 miles South 4.6 mph - N/A   Overcast
4:53 PM 42.1°F 35.1°F 76% 30.10 in 10.0 miles South 4.6 mph - 0.00 in Rain Light Rain
5:44 PM 42.8°F 35.6°F 76% 30.09 in 8.0 miles Variable 4.6 mph - 0.03 in Rain Light Rain
5:53 PM 42.1°F 36.0°F 79% 30.12 in 8.0 miles South 5.8 mph - 0.03 in Rain Light Rain
6:27 PM 42.8°F 37.4°F 81% 30.09 in 10.0 miles SSE 6.9 mph - 0.02 in Rain Light Rain
6:53 PM 42.1°F 37.9°F 85% 30.09 in 6.0 miles Variable 5.8 mph - 0.03 in Rain Light Rain
7:53 PM 42.1°F 39.0°F 89% 30.07 in 10.0 miles SSE 12.7 mph 20.7 mph 0.01 in Rain Light Rain
8:53 PM 42.1°F 39.0°F 89% 30.06 in 10.0 miles SSE 15.0 mph 19.6 mph 0.00 in   Overcast
9:00 PM 42.8°F 39.2°F 87% 30.05 in 10.0 miles SE 6.9 mph 19.6 mph N/A   Overcast
9:11 PM 41.0°F 39.2°F 93% 30.05 in 10.0 miles Variable 6.9 mph - N/A   Overcast
9:53 PM 41.0°F 37.9°F 89% 30.05 in 10.0 miles SSE 12.7 mph 19.6 mph N/A   Overcast
10:28 PM 41.0°F 37.4°F 87% 30.04 in 10.0 miles SSE 12.7 mph 19.6 mph N/A   Mostly Cloudy
10:53 PM 41.0°F 37.9°F 89% 30.04 in 10.0 miles SSE 15.0 mph - N/A   Overcast
11:04 PM 42.8°F 37.4°F 81% 30.03 in 10.0 miles SSE 16.1 mph - N/A   Overcast
11:32 PM 42.8°F 39.2°F 87% 30.04 in 10.0 miles South 11.5 mph - N/A   Overcast
11:53 PM 42.1°F 39.0°F 89% 30.06 in 3.0 miles SSE 16.1 mph - N/A   Overcast
Moon Phase
Jan. 24 Jan. 26 Feb. 03 Feb. 10 Feb. 17
Sunrise:07:45 AM (PST) Moon Rise:03:02 PM (PST)
Sunset:04:57 PM (PST) Moon Set:05:49 AM (PST)

Copyright © 2014 The Weather Underground, Inc.